Terminal Aerodrome Forecast
Issued by NWS

Home | Current Version | Previous Version | Text Only | Print | Product List | Glossary On
Versions: 1 2 3 4 5 6 7 8 9 10 11 12 13 14 15 16 17 18 19 20 21 22 23 24 25 26
000
FTUS41 KBUF 281120
TAFJHW
TAF
KJHW 281120Z 2812/2912 02003KT P6SM SKC
     FM281300 32005KT P6SM BKN035
     FM282300 32006KT P6SM SCT050
     FM290800 28004KT P6SM BKN060
      AMD LTD TO CLD VIS AND WIND=

USA.gov is the U.S. government's official web portal to all federal, state and local government web resources and services.